Time,TemperatureF,DewpointF,PressureIn,WindDirection,WindDirectionDegrees,WindSpeedMPH,WindSpeedGustMPH,Humidity,HourlyPrecipIn,Conditions,Clouds,dailyrainin,SoftwareType,DateUTC
2013-05-17 00:08:00,58.0,55.0,26.78,SSE,157,8.0,8.0,93,0.10,,,-99.99,,2013-05-17 05:08:00,
2013-05-17 00:13:00,58.0,55.0,26.78,SSE,161,10.0,10.0,93,0.10,,,-99.99,,2013-05-17 05:13:00,
2013-05-17 00:23:00,58.0,55.0,26.78,SSE,164,7.0,9.0,92,0.10,,,-99.99,,2013-05-17 05:23:00,
2013-05-17 00:28:00,58.0,55.0,26.78,South,171,6.0,7.0,92,0.10,,,-99.99,,2013-05-17 05:28:00,
2013-05-17 00:38:00,58.0,55.0,26.78,SE,141,6.0,6.0,92,0.10,,,-99.99,,2013-05-17 05:38:00,
2013-05-17 00:43:00,57.0,55.0,26.78,SSE,152,6.0,6.0,92,0.10,,,-99.99,,2013-05-17 05:43:00,
2013-05-17 00:48:00,57.0,55.0,26.78,SSE,157,6.0,7.0,92,0.10,,,-99.99,,2013-05-17 05:48:00,
2013-05-17 00:53:00,57.0,55.0,26.79,SSE,168,7.0,8.0,93,0.10,,,-99.99,,2013-05-17 05:53:00,
2013-05-17 00:58:00,57.0,55.0,26.78,SSW,192,7.0,8.0,93,0.10,,,-99.99,,2013-05-17 05:58:00,
2013-05-17 01:03:00,56.0,54.0,26.78,South,182,8.0,9.0,93,0.10,,,-99.99,,2013-05-17 06:03:00,
2013-05-17 01:13:00,56.0,54.0,26.78,South,180,7.0,8.0,93,0.10,,,-99.99,,2013-05-17 06:13:00,
2013-05-17 01:18:00,56.0,54.0,26.79,SSW,193,6.0,6.0,93,0.10,,,-99.99,,2013-05-17 06:18:00,
2013-05-17 01:23:00,56.0,54.0,26.79,WSW,243,5.0,6.0,94,0.10,,,-99.99,,2013-05-17 06:23:00,
2013-05-17 01:28:00,57.0,55.0,26.80,WSW,247,5.0,7.0,94,0.10,,,-99.99,,2013-05-17 06:28:00,
2013-05-17 01:33:00,57.0,55.0,26.80,West,261,5.0,6.0,94,0.10,,,-99.99,,2013-05-17 06:33:00,
2013-05-17 01:38:00,57.0,55.0,26.81,NW,307,8.0,9.0,93,0.10,,,-99.99,,2013-05-17 06:38:00,
2013-05-17 01:43:00,57.0,55.0,26.82,NNW,347,13.0,14.0,93,0.10,,,-99.99,,2013-05-17 06:43:00,
2013-05-17 01:48:00,57.0,55.0,26.82,NNW,333,13.0,14.0,92,0.10,,,-99.99,,2013-05-17 06:48:00,
2013-05-17 01:53:00,57.0,55.0,26.82,NNW,336,9.0,10.0,93,0.10,,,-99.99,,2013-05-17 06:53:00,
2013-05-17 02:03:00,57.0,55.0,26.83,WNW,302,9.0,10.0,94,0.10,,,-99.99,,2013-05-17 07:03:00,
2013-05-17 02:08:00,57.0,55.0,26.83,WNW,299,11.0,12.0,94,0.10,,,-99.99,,2013-05-17 07:08:00,
2013-05-17 02:23:00,58.0,55.0,26.82,WNW,296,9.0,12.0,94,0.10,,,-99.99,,2013-05-17 07:23:00,
2013-05-17 02:28:00,59.0,57.0,26.82,West,275,10.0,13.0,94,0.10,,,-99.99,,2013-05-17 07:28:00,
2013-05-17 02:38:00,60.0,57.0,26.82,WNW,283,10.0,13.0,92,0.10,,,-99.99,,2013-05-17 07:38:00,
2013-05-17 02:43:00,60.0,57.0,26.82,West,265,11.0,14.0,92,0.10,,,-99.99,,2013-05-17 07:43:00,
2013-05-17 02:53:00,61.0,57.0,26.82,West,264,12.0,16.0,90,0.10,,,-99.99,,2013-05-17 07:53:00,
2013-05-17 02:58:00,61.0,57.0,26.82,West,272,11.0,16.0,89,0.10,,,-99.99,,2013-05-17 07:58:00,
2013-05-17 03:03:00,62.0,59.0,26.81,WSW,254,12.0,16.0,90,0.10,,,-99.99,,2013-05-17 08:03:00,
2013-05-17 03:13:00,62.0,59.0,26.81,WSW,244,11.0,15.0,90,0.10,,,-99.99,,2013-05-17 08:13:00,
2013-05-17 03:18:00,62.0,59.0,26.79,SW,227,11.0,15.0,90,0.10,,,-99.99,,2013-05-17 08:18:00,
2013-05-17 03:28:00,61.0,57.0,26.78,SSW,202,14.0,16.0,90,0.10,,,-99.99,,2013-05-17 08:28:00,
2013-05-17 03:33:00,61.0,59.0,26.77,South,186,14.0,17.0,91,0.10,,,-99.99,,2013-05-17 08:33:00,
2013-05-17 03:43:00,61.0,59.0,26.75,SSW,202,21.0,25.0,92,0.10,,,-99.99,,2013-05-17 08:43:00,
2013-05-17 03:48:00,61.0,59.0,26.75,SSW,197,20.0,24.0,92,0.10,,,-99.99,,2013-05-17 08:48:00,
2013-05-17 03:58:00,62.0,59.0,26.73,South,173,20.0,24.0,90,0.10,,,-99.99,,2013-05-17 08:58:00,
2013-05-17 04:03:00,63.0,61.0,26.76,South,178,20.0,25.0,90,0.10,,,-99.99,,2013-05-17 09:03:00,
2013-05-17 04:08:00,63.0,59.0,26.77,SW,235,17.0,24.0,89,0.10,,,-99.99,,2013-05-17 09:08:00,
2013-05-17 04:18:00,63.0,59.0,26.78,WSW,248,14.0,18.0,88,0.10,,,-99.99,,2013-05-17 09:18:00,
2013-05-17 04:23:00,62.0,59.0,26.78,West,261,14.0,19.0,88,0.10,,,-99.99,,2013-05-17 09:23:00,
2013-05-17 04:33:00,62.0,59.0,26.78,WSW,245,12.0,18.0,91,0.10,,,-99.99,,2013-05-17 09:33:00,
2013-05-17 04:38:00,62.0,59.0,26.77,West,261,12.0,19.0,89,0.10,,,-99.99,,2013-05-17 09:38:00,
2013-05-17 04:43:00,62.0,59.0,26.77,WSW,251,14.0,20.0,90,0.10,,,-99.99,,2013-05-17 09:43:00,
2013-05-17 04:48:00,62.0,59.0,26.77,West,262,15.0,20.0,90,0.10,,,-99.99,,2013-05-17 09:48:00,
2013-05-17 04:53:00,62.0,59.0,26.77,WSW,241,17.0,21.0,90,0.10,,,-99.99,,2013-05-17 09:53:00,
2013-05-17 05:03:00,62.0,59.0,26.76,SW,223,16.0,21.0,90,0.10,,,-99.99,,2013-05-17 10:03:00,
2013-05-17 05:23:00,61.0,59.0,26.77,WSW,252,15.0,20.0,92,0.10,,,-99.99,,2013-05-17 10:23:00,
2013-05-17 05:28:00,61.0,59.0,26.77,WSW,238,15.0,19.0,92,0.10,,,-99.99,,2013-05-17 10:28:00,
2013-05-17 05:38:00,61.0,59.0,26.77,WSW,240,15.0,19.0,92,0.10,,,-99.99,,2013-05-17 10:38:00,
2013-05-17 05:43:00,61.0,59.0,26.77,WSW,245,15.0,19.0,92,0.10,,,-99.99,,2013-05-17 10:43:00,
2013-05-17 05:53:00,60.0,57.0,26.77,WSW,255,14.0,16.0,93,0.10,,,-99.99,,2013-05-17 10:53:00,
2013-05-17 05:58:00,60.0,57.0,26.78,WSW,251,12.0,15.0,93,0.10,,,-99.99,,2013-05-17 10:58:00,
2013-05-17 06:08:00,59.0,57.0,26.77,WSW,245,10.0,13.0,93,0.10,,,-99.99,,2013-05-17 11:08:00,
2013-05-17 06:13:00,59.0,57.0,26.77,WSW,248,11.0,13.0,93,0.10,,,-99.99,,2013-05-17 11:13:00,
2013-05-17 06:23:00,59.0,57.0,26.77,WSW,252,12.0,14.0,94,0.10,,,-99.99,,2013-05-17 11:23:00,
2013-05-17 06:28:00,59.0,57.0,26.77,WSW,245,11.0,14.0,94,0.10,,,-99.99,,2013-05-17 11:28:00,
2013-05-17 06:33:00,59.0,57.0,26.78,WSW,257,11.0,14.0,94,0.10,,,-99.99,,2013-05-17 11:33:00,
2013-05-17 06:38:00,58.0,55.0,26.77,WSW,252,11.0,13.0,93,0.10,,,-99.99,,2013-05-17 11:38:00,
2013-05-17 06:43:00,58.0,55.0,26.78,WSW,252,11.0,14.0,94,0.10,,,-99.99,,2013-05-17 11:43:00,
2013-05-17 06:48:00,58.0,55.0,26.78,WSW,251,11.0,14.0,94,0.10,,,-99.99,,2013-05-17 11:48:00,
2013-05-17 06:53:00,58.0,55.0,26.78,West,261,12.0,15.0,93,0.10,,,-99.99,,2013-05-17 11:53:00,
2013-05-17 06:58:00,59.0,57.0,26.78,WSW,258,13.0,16.0,94,0.10,,,-99.99,,2013-05-17 11:58:00,
2013-05-17 07:03:00,59.0,57.0,26.78,West,264,14.0,18.0,93,0.00,,,-99.99,,2013-05-17 12:03:00,
2013-05-17 07:08:00,60.0,57.0,26.78,West,266,15.0,18.0,92,0.00,,,-99.99,,2013-05-17 12:08:00,
2013-05-17 07:13:00,60.0,57.0,26.79,WSW,255,13.0,16.0,91,0.00,,,-99.99,,2013-05-17 12:13:00,
2013-05-17 07:18:00,60.0,57.0,26.79,WSW,252,13.0,16.0,92,0.00,,,-99.99,,2013-05-17 12:18:00,
2013-05-17 07:33:00,61.0,59.0,26.79,WSW,257,12.0,15.0,93,0.00,,,-99.99,,2013-05-17 12:33:00,
2013-05-17 07:38:00,61.0,59.0,26.79,WSW,243,11.0,15.0,93,0.00,,,-99.99,,2013-05-17 12:38:00,
2013-05-17 07:48:00,62.0,59.0,26.79,WSW,251,12.0,15.0,92,0.00,,,-99.99,,2013-05-17 12:48:00,
2013-05-17 07:53:00,63.0,61.0,26.79,WSW,257,12.0,16.0,92,0.00,,,-99.99,,2013-05-17 12:53:00,
2013-05-17 08:03:00,63.0,61.0,26.79,WSW,258,13.0,16.0,91,0.00,,,-99.99,,2013-05-17 13:03:00,
2013-05-17 08:08:00,64.0,61.0,26.79,West,261,12.0,16.0,91,0.00,,,-99.99,,2013-05-17 13:08:00,
2013-05-17 08:18:00,65.0,63.0,26.80,WSW,244,14.0,18.0,91,0.00,,,-99.99,,2013-05-17 13:18:00,
2013-05-17 08:23:00,65.0,63.0,26.80,WSW,250,13.0,18.0,91,0.00,,,-99.99,,2013-05-17 13:23:00,
2013-05-17 08:33:00,66.0,63.0,26.80,WSW,247,15.0,18.0,90,0.00,,,-99.99,,2013-05-17 13:33:00,
2013-05-17 08:43:00,67.0,64.0,26.80,WSW,238,11.0,14.0,90,0.00,,,-99.99,,2013-05-17 13:43:00,
2013-05-17 08:53:00,68.0,64.0,26.81,WSW,238,10.0,13.0,88,0.00,,,-99.99,,2013-05-17 13:53:00,
2013-05-17 08:58:00,68.0,64.0,26.81,SW,214,9.0,11.0,88,0.00,,,-99.99,,2013-05-17 13:58:00,
2013-05-17 09:08:00,69.0,64.0,26.81,South,186,7.0,8.0,84,0.00,,,-99.99,,2013-05-17 14:08:00,
2013-05-17 09:18:00,70.0,64.0,26.81,South,178,10.0,13.0,83,0.00,,,-99.99,,2013-05-17 14:18:00,
2013-05-17 09:23:00,70.0,64.0,26.81,South,171,9.0,10.0,82,0.00,,,-99.99,,2013-05-17 14:23:00,
2013-05-17 09:33:00,71.0,64.0,26.82,SSW,192,7.0,10.0,82,0.00,,,-99.99,,2013-05-17 14:33:00,
2013-05-17 09:38:00,72.0,64.0,26.82,SSE,161,9.0,13.0,78,0.00,,,-99.99,,2013-05-17 14:38:00,
2013-05-17 09:48:00,73.0,66.0,26.82,SSW,199,9.0,12.0,78,0.00,,,-99.99,,2013-05-17 14:48:00,
2013-05-17 09:53:00,73.0,66.0,26.82,SSW,197,9.0,12.0,77,0.00,,,-99.99,,2013-05-17 14:53:00,
2013-05-17 10:03:00,74.0,66.0,26.82,South,190,11.0,13.0,75,0.00,,,-99.99,,2013-05-17 15:03:00,
2013-05-17 10:08:00,74.0,64.0,26.81,South,190,10.0,13.0,74,0.00,,,-99.99,,2013-05-17 15:08:00,
2013-05-17 10:13:00,75.0,66.0,26.81,South,189,9.0,13.0,74,0.00,,,-99.99,,2013-05-17 15:13:00,
2013-05-17 10:18:00,75.0,66.0,26.81,SSW,197,12.0,16.0,73,0.00,,,-99.99,,2013-05-17 15:18:00,
2013-05-17 10:23:00,75.0,66.0,26.81,South,188,10.0,13.0,73,0.00,,,-99.99,,2013-05-17 15:23:00,
2013-05-17 10:33:00,76.0,66.0,26.81,SSW,200,11.0,13.0,71,0.00,,,-99.99,,2013-05-17 15:33:00,
2013-05-17 10:38:00,76.0,66.0,26.81,SSW,196,12.0,14.0,70,0.00,,,-99.99,,2013-05-17 15:38:00,
2013-05-17 10:48:00,76.0,66.0,26.81,SSW,199,10.0,13.0,70,0.00,,,-99.99,,2013-05-17 15:48:00,
2013-05-17 10:53:00,76.0,64.0,26.81,SSW,203,10.0,13.0,69,0.00,,,-99.99,,2013-05-17 15:53:00,
2013-05-17 10:58:00,77.0,66.0,26.81,SW,221,11.0,13.0,69,0.00,,,-99.99,,2013-05-17 15:58:00,
2013-05-17 11:03:00,77.0,66.0,26.81,SW,224,11.0,14.0,68,0.00,,,-99.99,,2013-05-17 16:03:00,
2013-05-17 11:13:00,78.0,66.0,26.81,SSW,195,10.0,12.0,66,0.00,,,-99.99,,2013-05-17 16:13:00,
2013-05-17 11:23:00,78.0,64.0,26.81,SSW,204,10.0,13.0,63,0.00,,,-99.99,,2013-05-17 16:23:00,
2013-05-17 11:33:00,79.0,64.0,26.81,South,183,13.0,15.0,62,0.00,,,-99.99,,2013-05-17 16:33:00,
2013-05-17 11:38:00,79.0,64.0,26.81,South,189,14.0,16.0,61,0.00,,,-99.99,,2013-05-17 16:38:00,
2013-05-17 11:43:00,80.0,64.0,26.81,SSW,193,13.0,15.0,60,0.00,,,-99.99,,2013-05-17 16:43:00,
2013-05-17 11:48:00,80.0,64.0,26.81,South,172,14.0,17.0,59,0.00,,,-99.99,,2013-05-17 16:48:00,
2013-05-17 11:53:00,81.0,66.0,26.81,SW,226,11.0,13.0,60,0.00,,,-99.99,,2013-05-17 16:53:00,
2013-05-17 11:58:00,81.0,64.0,26.81,South,173,14.0,17.0,59,0.00,,,-99.99,,2013-05-17 16:58:00,
2013-05-17 12:03:00,81.0,63.0,26.81,South,180,16.0,19.0,55,0.00,,,-99.99,,2013-05-17 17:03:00,
2013-05-17 12:08:00,81.0,64.0,26.80,SSW,192,14.0,17.0,56,0.00,,,-99.99,,2013-05-17 17:08:00,
2013-05-17 12:18:00,82.0,64.0,26.80,South,185,13.0,15.0,54,0.00,,,-99.99,,2013-05-17 17:18:00,
2013-05-17 12:28:00,83.0,64.0,26.80,SSW,195,12.0,14.0,52,0.00,,,-99.99,,2013-05-17 17:28:00,
2013-05-17 12:38:00,83.0,63.0,26.79,South,190,17.0,19.0,51,0.00,,,-99.99,,2013-05-17 17:38:00,
2013-05-17 12:43:00,83.0,63.0,26.79,SSW,202,12.0,16.0,51,0.00,,,-99.99,,2013-05-17 17:43:00,
2013-05-17 12:48:00,84.0,64.0,26.79,SSW,200,15.0,17.0,51,0.00,,,-99.99,,2013-05-17 17:48:00,
2013-05-17 12:53:00,84.0,64.0,26.79,SSE,168,14.0,18.0,51,0.00,,,-99.99,,2013-05-17 17:53:00,
2013-05-17 13:03:00,85.0,64.0,26.79,South,172,14.0,17.0,49,0.00,,,-99.99,,2013-05-17 18:03:00,
2013-05-17 13:13:00,85.0,63.0,26.78,South,180,15.0,19.0,48,0.00,,,-99.99,,2013-05-17 18:13:00,
2013-05-17 13:18:00,85.0,63.0,26.78,SSE,159,17.0,21.0,47,0.00,,,-99.99,,2013-05-17 18:18:00,
2013-05-17 13:23:00,85.0,63.0,26.78,South,172,14.0,17.0,48,0.00,,,-99.99,,2013-05-17 18:23:00,
2013-05-17 13:33:00,85.0,61.0,26.78,South,178,18.0,21.0,45,0.00,,,-99.99,,2013-05-17 18:33:00,
2013-05-17 13:43:00,86.0,63.0,26.78,South,173,16.0,19.0,45,0.00,,,-99.99,,2013-05-17 18:43:00,
2013-05-17 13:53:00,86.0,61.0,26.78,SSE,164,16.0,21.0,44,0.00,,,-99.99,,2013-05-17 18:53:00,
2013-05-17 14:03:00,87.0,63.0,26.78,SSE,164,16.0,20.0,43,0.00,,,-99.99,,2013-05-17 19:03:00,
2013-05-17 14:13:00,87.0,61.0,26.77,SSE,165,20.0,24.0,42,0.00,,,-99.99,,2013-05-17 19:13:00,
2013-05-17 14:23:00,87.0,61.0,26.77,South,169,17.0,22.0,42,0.00,,,-99.99,,2013-05-17 19:23:00,
2013-05-17 14:33:00,87.0,61.0,26.76,SSE,166,19.0,22.0,41,0.00,,,-99.99,,2013-05-17 19:33:00,
2013-05-17 14:43:00,88.0,61.0,26.76,SSE,151,17.0,22.0,41,0.00,,,-99.99,,2013-05-17 19:43:00,
2013-05-17 14:53:00,87.0,61.0,26.77,SE,140,19.0,24.0,41,0.00,,,-99.99,,2013-05-17 19:53:00,
2013-05-17 15:03:00,88.0,59.0,26.76,South,180,21.0,25.0,39,0.00,,,-99.99,,2013-05-17 20:03:00,
2013-05-17 15:13:00,88.0,57.0,26.76,South,173,21.0,23.0,35,0.00,,,-99.99,,2013-05-17 20:13:00,
2013-05-17 15:23:00,88.0,57.0,26.76,SSE,154,20.0,23.0,35,0.00,,,-99.99,,2013-05-17 20:23:00,
2013-05-17 15:33:00,88.0,59.0,26.76,SSE,147,22.0,26.0,37,0.00,,,-99.99,,2013-05-17 20:33:00,
2013-05-17 15:43:00,88.0,61.0,26.76,SSE,155,19.0,23.0,40,0.00,,,-99.99,,2013-05-17 20:43:00,
2013-05-17 15:53:00,88.0,59.0,26.75,SE,145,20.0,24.0,38,0.00,,,-99.99,,2013-05-17 20:53:00,
2013-05-17 15:58:00,88.0,59.0,26.75,SE,131,23.0,27.0,39,0.00,,,-99.99,,2013-05-17 20:58:00,
2013-05-17 16:03:00,88.0,61.0,26.75,SSE,162,19.0,23.0,40,0.00,,,-99.99,,2013-05-17 21:03:00,
2013-05-17 16:08:00,88.0,59.0,26.75,SSE,154,21.0,24.0,39,0.00,,,-99.99,,2013-05-17 21:08:00,
2013-05-17 16:13:00,88.0,59.0,26.75,South,173,21.0,25.0,37,0.00,,,-99.99,,2013-05-17 21:13:00,
2013-05-17 16:18:00,88.0,57.0,26.75,South,169,21.0,24.0,36,0.00,,,-99.99,,2013-05-17 21:18:00,
2013-05-17 16:23:00,88.0,57.0,26.75,SSE,155,23.0,28.0,35,0.00,,,-99.99,,2013-05-17 21:23:00,
2013-05-17 16:28:00,88.0,59.0,26.75,SSE,162,18.0,22.0,39,0.00,,,-99.99,,2013-05-17 21:28:00,
2013-05-17 16:33:00,88.0,57.0,26.75,South,175,21.0,25.0,35,0.00,,,-99.99,,2013-05-17 21:33:00,
2013-05-17 16:38:00,88.0,57.0,26.74,SE,145,20.0,23.0,36,0.00,,,-99.99,,2013-05-17 21:38:00,
2013-05-17 16:43:00,88.0,59.0,26.74,SSE,157,20.0,28.0,37,0.00,,,-99.99,,2013-05-17 21:43:00,
2013-05-17 16:48:00,88.0,57.0,26.74,SSE,157,23.0,27.0,36,0.00,,,-99.99,,2013-05-17 21:48:00,
2013-05-17 16:53:00,88.0,57.0,26.74,SSE,168,23.0,27.0,36,0.00,,,-99.99,,2013-05-17 21:53:00,
2013-05-17 16:58:00,87.0,52.0,26.74,South,169,23.0,26.0,31,0.00,,,-99.99,,2013-05-17 21:58:00,
2013-05-17 17:03:00,87.0,55.0,26.74,SSE,155,23.0,26.0,34,0.00,,,-99.99,,2013-05-17 22:03:00,
2013-05-17 17:08:00,87.0,55.0,26.74,SSE,168,22.0,26.0,34,0.00,,,-99.99,,2013-05-17 22:08:00,
2013-05-17 17:18:00,88.0,55.0,26.74,SSE,165,20.0,23.0,34,0.00,,,-99.99,,2013-05-17 22:18:00,
2013-05-17 17:28:00,87.0,55.0,26.74,SE,144,21.0,25.0,35,0.00,,,-99.99,,2013-05-17 22:28:00,
2013-05-17 17:33:00,87.0,54.0,26.73,SSE,154,21.0,25.0,33,0.00,,,-99.99,,2013-05-17 22:33:00,
2013-05-17 17:38:00,87.0,55.0,26.73,SSE,147,22.0,26.0,34,0.00,,,-99.99,,2013-05-17 22:38:00,
2013-05-17 17:48:00,87.0,54.0,26.73,SSE,164,24.0,28.0,33,0.00,,,-99.99,,2013-05-17 22:48:00,
2013-05-17 17:58:00,87.0,57.0,26.73,SE,137,21.0,28.0,37,0.00,,,-99.99,,2013-05-17 22:58:00,
2013-05-17 18:08:00,87.0,59.0,26.73,SSE,152,23.0,26.0,38,0.00,,,-99.99,,2013-05-17 23:08:00,
2013-05-17 18:13:00,87.0,57.0,26.73,SSE,147,23.0,28.0,37,0.00,,,-99.99,,2013-05-17 23:13:00,
2013-05-17 18:18:00,86.0,57.0,26.73,SSE,165,22.0,26.0,37,0.00,,,-99.99,,2013-05-17 23:18:00,
2013-05-17 18:23:00,86.0,59.0,26.73,SSE,157,22.0,27.0,39,0.00,,,-99.99,,2013-05-17 23:23:00,
2013-05-17 18:28:00,86.0,55.0,26.73,South,171,22.0,26.0,36,0.00,,,-99.99,,2013-05-17 23:28:00,
2013-05-17 18:33:00,86.0,59.0,26.72,SSE,152,23.0,27.0,40,0.00,,,-99.99,,2013-05-17 23:33:00,
2013-05-17 18:38:00,86.0,59.0,26.72,SSE,164,21.0,25.0,40,0.00,,,-99.99,,2013-05-17 23:38:00,
2013-05-17 18:48:00,85.0,57.0,26.72,SSE,147,22.0,26.0,38,0.00,,,-99.99,,2013-05-17 23:48:00,
2013-05-17 18:53:00,85.0,59.0,26.72,South,175,20.0,27.0,42,0.00,,,-99.99,,2013-05-17 23:53:00,
2013-05-17 19:03:00,85.0,57.0,26.72,South,172,22.0,27.0,40,0.00,,,-99.99,,2013-05-18 00:03:00,
2013-05-17 19:08:00,85.0,54.0,26.72,SSE,161,22.0,26.0,35,0.00,,,-99.99,,2013-05-18 00:08:00,
2013-05-17 19:13:00,85.0,55.0,26.72,SSE,159,23.0,28.0,36,0.00,,,-99.99,,2013-05-18 00:13:00,
2013-05-17 19:18:00,84.0,59.0,26.71,SSE,155,20.0,25.0,42,0.00,,,-99.99,,2013-05-18 00:18:00,
2013-05-17 19:23:00,84.0,57.0,26.71,SSE,161,22.0,26.0,41,0.00,,,-99.99,,2013-05-18 00:23:00,
2013-05-17 19:28:00,84.0,59.0,26.71,South,169,21.0,25.0,43,0.00,,,-99.99,,2013-05-18 00:28:00,
2013-05-17 19:33:00,84.0,57.0,26.71,South,185,23.0,28.0,41,0.00,,,-99.99,,2013-05-18 00:33:00,
2013-05-17 19:38:00,83.0,59.0,26.71,South,175,22.0,27.0,44,0.00,,,-99.99,,2013-05-18 00:38:00,
2013-05-17 19:43:00,83.0,57.0,26.71,SSE,161,22.0,28.0,42,0.00,,,-99.99,,2013-05-18 00:43:00,
2013-05-17 19:48:00,82.0,57.0,26.71,SSE,151,23.0,26.0,43,0.00,,,-99.99,,2013-05-18 00:48:00,
2013-05-17 19:53:00,82.0,59.0,26.71,SE,145,20.0,27.0,46,0.00,,,-99.99,,2013-05-18 00:53:00,
2013-05-17 19:58:00,82.0,57.0,26.71,SE,145,22.0,27.0,44,0.00,,,-99.99,,2013-05-18 00:58:00,
2013-05-17 20:03:00,81.0,57.0,26.71,South,169,21.0,25.0,44,0.00,,,-99.99,,2013-05-18 01:03:00,
2013-05-17 20:08:00,81.0,59.0,26.71,SSE,154,20.0,24.0,46,0.00,,,-99.99,,2013-05-18 01:08:00,
2013-05-17 20:13:00,81.0,59.0,26.71,SSE,162,19.0,23.0,47,0.00,,,-99.99,,2013-05-18 01:13:00,
2013-05-17 20:18:00,81.0,59.0,26.71,SSE,159,21.0,23.0,46,0.00,,,-99.99,,2013-05-18 01:18:00,
2013-05-17 20:23:00,80.0,59.0,26.71,SE,141,19.0,22.0,50,0.00,,,-99.99,,2013-05-18 01:23:00,
2013-05-17 20:28:00,80.0,61.0,26.72,SSE,148,18.0,21.0,51,0.00,,,-99.99,,2013-05-18 01:28:00,
2013-05-17 20:33:00,79.0,59.0,26.72,SSE,164,18.0,22.0,51,0.00,,,-99.99,,2013-05-18 01:33:00,
2013-05-17 20:38:00,79.0,59.0,26.72,SSE,164,17.0,19.0,52,0.00,,,-99.99,,2013-05-18 01:38:00,
2013-05-17 20:43:00,78.0,59.0,26.72,SSE,164,16.0,20.0,53,0.00,,,-99.99,,2013-05-18 01:43:00,
2013-05-17 20:48:00,78.0,61.0,26.73,SSE,161,14.0,18.0,54,0.00,,,-99.99,,2013-05-18 01:48:00,
2013-05-17 20:53:00,78.0,61.0,26.73,SE,145,14.0,16.0,54,0.00,,,-99.99,,2013-05-18 01:53:00,
2013-05-17 20:58:00,77.0,61.0,26.73,SSE,154,15.0,18.0,56,0.00,,,-99.99,,2013-05-18 01:58:00,
2013-05-17 21:03:00,77.0,61.0,26.73,SE,134,15.0,21.0,57,0.00,,,-99.99,,2013-05-18 02:03:00,
2013-05-17 21:08:00,76.0,59.0,26.73,SE,141,15.0,18.0,57,0.00,,,-99.99,,2013-05-18 02:08:00,
2013-05-17 21:13:00,76.0,59.0,26.73,SE,145,15.0,19.0,56,0.00,,,-99.99,,2013-05-18 02:13:00,
2013-05-17 21:23:00,75.0,59.0,26.73,SE,135,15.0,18.0,57,0.00,,,-99.99,,2013-05-18 02:23:00,
2013-05-17 21:28:00,75.0,59.0,26.73,SSE,152,15.0,18.0,59,0.00,,,-99.99,,2013-05-18 02:28:00,
2013-05-17 21:38:00,74.0,59.0,26.73,SE,141,15.0,18.0,60,0.00,,,-99.99,,2013-05-18 02:38:00,
2013-05-17 21:43:00,74.0,61.0,26.73,SE,145,15.0,18.0,62,0.00,,,-99.99,,2013-05-18 02:43:00,
2013-05-17 21:48:00,74.0,61.0,26.72,SE,144,15.0,18.0,63,0.00,,,-99.99,,2013-05-18 02:48:00,
2013-05-17 21:53:00,74.0,61.0,26.73,SSE,147,15.0,18.0,65,0.00,,,-99.99,,2013-05-18 02:53:00,
2013-05-17 22:03:00,73.0,63.0,26.74,SSE,159,17.0,20.0,68,0.00,,,-99.99,,2013-05-18 03:03:00,
2013-05-17 22:08:00,73.0,63.0,26.74,SSE,159,16.0,19.0,70,0.00,,,-99.99,,2013-05-18 03:08:00,
2013-05-17 22:18:00,72.0,63.0,26.75,South,169,15.0,18.0,72,0.00,,,-99.99,,2013-05-18 03:18:00,
2013-05-17 22:23:00,72.0,64.0,26.75,SSE,168,15.0,18.0,75,0.00,,,-99.99,,2013-05-18 03:23:00,
2013-05-17 22:33:00,72.0,64.0,26.75,SSE,152,17.0,20.0,78,0.00,,,-99.99,,2013-05-18 03:33:00,
2013-05-17 22:38:00,72.0,64.0,26.76,South,172,15.0,18.0,77,0.00,,,-99.99,,2013-05-18 03:38:00,
2013-05-17 22:48:00,71.0,64.0,26.76,South,171,13.0,16.0,79,0.00,,,-99.99,,2013-05-18 03:48:00,
2013-05-17 22:53:00,70.0,64.0,26.76,SSE,166,13.0,17.0,82,0.00,,,-99.99,,2013-05-18 03:53:00,
2013-05-17 22:58:00,70.0,64.0,26.76,SSE,159,17.0,20.0,81,0.00,,,-99.99,,2013-05-18 03:58:00,
2013-05-17 23:03:00,70.0,64.0,26.76,SSE,157,19.0,23.0,84,0.00,,,-99.99,,2013-05-18 04:03:00,
2013-05-17 23:08:00,70.0,64.0,26.76,SSE,168,18.0,23.0,83,0.00,,,-99.99,,2013-05-18 04:08:00,
2013-05-17 23:13:00,69.0,64.0,26.76,SSE,157,21.0,25.0,84,0.00,,,-99.99,,2013-05-18 04:13:00,
2013-05-17 23:18:00,69.0,64.0,26.76,South,172,19.0,23.0,85,0.00,,,-99.99,,2013-05-18 04:18:00,
2013-05-17 23:28:00,69.0,64.0,26.76,SSE,165,21.0,24.0,86,0.00,,,-99.99,,2013-05-18 04:28:00,
2013-05-17 23:33:00,69.0,64.0,26.76,South,173,21.0,23.0,87,0.00,,,-99.99,,2013-05-18 04:33:00,
2013-05-17 23:38:00,69.0,64.0,26.76,SE,145,21.0,24.0,88,0.00,,,-99.99,,2013-05-18 04:38:00,
2013-05-17 23:43:00,69.0,64.0,26.76,SSE,152,19.0,23.0,87,0.00,,,-99.99,,2013-05-18 04:43:00,
2013-05-17 23:48:00,68.0,64.0,26.77,South,169,16.0,20.0,89,0.00,,,-99.99,,2013-05-18 04:48:00,
2013-05-17 23:58:00,68.0,64.0,26.77,SSE,165,17.0,21.0,90,0.00,,,-99.99,,2013-05-18 04:58:00,